Regional Weather Roundup
Issued by NWS

Home | Current Version | Previous Version | Text Only | Print | Product List | Glossary Off
Versions: 1 2 3 4 5 6 7 8 9 10 11 12 13 14 15 16 17 18 19 20 21 22 23 24 25 26 27 28 29 30 31 32 33 34 35 36 37 38 39 40 41 42 43 44 45 46 47 48 49 50

000
ASUS43 KBIS 291810
RWRND

NORTH DAKOTA REGIONAL WEATHER ROUNDUP
NATIONAL WEATHER SERVICE BISMARCK ND
100 PM CDT THU SEP 29 2016

NOTE: "FAIR" INDICATES FEW OR NO CLOUDS BELOW 12,000 FEET WITH NO
SIGNIFICANT WEATHER AND/OR OBSTRUCTIONS TO VISIBILITY.


NDZ001>003-009>011-017-291900-
NORTHWEST NORTH DAKOTA

CITY           SKY/WX    TMP DP  RH WIND       PRES   REMARKS
WILLISTON      FAIR      70  43  37 SE14G22   30.22F
6HR MIN TEMP:  51; 6HR MAX TEMP:  70;

MINOT          FAIR      67  46  47 SE16G25   30.31F
MINOT AFB      FAIR      67  46  47 S21       30.30F
$$

NDZ018>021-031>035-040>046-291900-
SOUTHWEST NORTH DAKOTA

CITY           SKY/WX    TMP DP  RH WIND       PRES   REMARKS
BISMARCK       FAIR      66  46  48 SE21G28   30.36F
6HR MIN TEMP:  39; 6HR MAX TEMP:  66;

DICKINSON      FAIR      68  43  40 SE18      30.25F
GARRISON         N/A     65  47  52 S13       30.32F
6HR MIN TEMP:  45; 6HR MAX TEMP:  66;

HETTINGER ARPT FAIR      69  44  40 SE16      30.29F
$$

NDZ004>008-012>016-024-026-027-054-291900-
NORTHEAST NORTH DAKOTA

CITY           SKY/WX    TMP DP  RH WIND       PRES   REMARKS
GRAND FORKS    PTSUNNY   63  46  54 S13       30.45F
GRND FRKS AFB  FAIR      64  47  53 S14       30.45F
DEVILS LAKE    FAIR      61  49  64 S16       30.41F
$$

NDZ022-023-025-028>030-036>039-047>053-291900-
SOUTHEAST NORTH DAKOTA

CITY           SKY/WX    TMP DP  RH WIND       PRES   REMARKS
FARGO          PTSUNNY   64  45  49 SE10G22   30.46F
6HR MIN TEMP:  48; 6HR MAX TEMP:  65;

JAMESTOWN      FAIR      63  49  60 S12G24    30.41F
$$





USA.gov is the U.S. government's official web portal to all federal, state and local government web resources and services.